FOYST LFMD-LFKJ

Flight info

Callsign FOYST
Flight time 0h 51m
Altitude 5500
Route LFMD/SA DCT MERLU DCT LONSU DCT LFKJ/NA
Aircraft TBM9/M-SDFGRWY/S

Departure

Time 2026-04-27 19:13
Airport Cannes Mandelieu Airport (LFMD)

Arrival

Time 2026-04-27 20:05
Airport Ajaccio Napoléon Bonaparte airport (LFKJ)
Time Latitude Longitude Altitude Speed Heading
2026-04-27 18:18 43.54633 6.95534 13 ft 0 kts 45°
2026-04-27 18:43 43.54634 6.95537 13 ft 2 kts 62°
2026-04-27 18:43 43.54627 6.95548 13 ft 0 kts 191°
2026-04-27 18:43 43.54597 6.95514 13 ft 15 kts 232°
2026-04-27 18:44 43.54546 6.95509 12 ft 7 kts 205°
2026-04-27 18:44 43.54508 6.95462 12 ft 9 kts 221°
2026-04-27 18:44 43.54455 6.95397 12 ft 11 kts 225°
2026-04-27 18:44 43.54429 6.95332 12 ft 4 kts 301°
2026-04-27 18:45 43.54468 6.95317 13 ft 9 kts 344°
2026-04-27 18:45 43.54533 6.95300 13 ft 11 kts 352°
2026-04-27 18:45 43.54671 6.95280 13 ft 27 kts 354°
2026-04-27 18:45 43.54837 6.95248 14 ft 22 kts 353°
2026-04-27 18:46 43.54992 6.95220 15 ft 20 kts 351°
2026-04-27 18:46 43.55140 6.95193 15 ft 22 kts 350°
2026-04-27 18:46 43.55253 6.95175 16 ft 16 kts 349°
2026-04-27 18:46 43.55354 6.95157 17 ft 10 kts 346°
2026-04-27 18:47 43.55392 6.95097 17 ft 0 kts 271°
2026-04-27 19:11 43.55391 6.95066 17 ft 8 kts 265°
2026-04-27 19:11 43.55341 6.94993 17 ft 9 kts 169°
2026-04-27 19:12 43.55336 6.94994 17 ft 0 kts 172°
2026-04-27 19:12 43.55199 6.95017 14 ft 55 kts 174°
2026-04-27 19:13 43.54594 6.95126 121 ft 106 kts 170°
2026-04-27 19:13 43.53782 6.95280 382 ft 138 kts 173°
2026-04-27 19:13 43.52912 6.95765 868 ft 146 kts 134°
2026-04-27 19:13 43.52292 6.96965 1305 ft 151 kts 124°
2026-04-27 19:14 43.51691 6.98198 1697 ft 163 kts 124°
2026-04-27 19:14 43.51125 6.99650 1881 ft 183 kts 117°
2026-04-27 19:14 43.50662 7.01301 2056 ft 192 kts 108°
2026-04-27 19:14 43.50275 7.03054 2224 ft 190 kts 111°
2026-04-27 19:15 43.49824 7.04843 2123 ft 200 kts 108°
2026-04-27 19:15 43.49873 7.06769 1902 ft 211 kts 73°
2026-04-27 19:15 43.49842 7.08748 1595 ft 217 kts 115°
2026-04-27 19:15 43.49020 7.10387 1793 ft 198 kts 136°
2026-04-27 19:16 43.48074 7.11475 2567 ft 164 kts 147°
2026-04-27 19:16 43.47460 7.12029 2978 ft 154 kts 149°
2026-04-27 19:16 43.46221 7.13013 3618 ft 157 kts 152°
2026-04-27 19:16 43.45220 7.13814 3785 ft 181 kts 144°
2026-04-27 19:17 43.44240 7.14934 4099 ft 188 kts 145°
2026-04-27 19:17 43.43265 7.16124 4541 ft 182 kts 125°
2026-04-27 19:17 43.42481 7.17565 4752 ft 198 kts 132°
2026-04-27 19:17 43.41609 7.19078 5012 ft 200 kts 126°
2026-04-27 19:18 43.40763 7.20600 5351 ft 206 kts 130°
2026-04-27 19:18 43.39845 7.22184 5493 ft 222 kts 126°
2026-04-27 19:18 43.38893 7.23913 5672 ft 231 kts 129°
2026-04-27 19:18 43.37828 7.25610 5738 ft 241 kts 133°
2026-04-27 19:19 43.36662 7.27290 5878 ft 242 kts 135°
2026-04-27 19:19 43.35455 7.28888 5943 ft 246 kts 136°
2026-04-27 19:19 43.34171 7.30537 5776 ft 255 kts 138°
2026-04-27 19:19 43.32904 7.32268 5651 ft 258 kts 134°
2026-04-27 19:20 43.31708 7.34073 5692 ft 254 kts 131°
2026-04-27 19:20 43.30573 7.35875 5736 ft 251 kts 133°
2026-04-27 19:20 43.29377 7.37608 5804 ft 251 kts 136°
2026-04-27 19:20 43.27913 7.38937 5615 ft 256 kts 156°
2026-04-27 19:21 43.26468 7.40349 5516 ft 257 kts 137°
2026-04-27 19:21 43.25407 7.42330 5330 ft 260 kts 123°
2026-04-27 19:21 43.24400 7.44317 5477 ft 251 kts 127°
2026-04-27 19:21 43.23340 7.46238 5368 ft 254 kts 129°
2026-04-27 19:22 43.22251 7.48172 5250 ft 256 kts 128°
2026-04-27 19:22 43.21172 7.50119 5130 ft 257 kts 128°
2026-04-27 19:22 43.20095 7.52079 5083 ft 254 kts 128°
2026-04-27 19:22 43.18983 7.53935 5139 ft 250 kts 132°
2026-04-27 19:23 43.17967 7.55847 5058 ft 254 kts 122°
2026-04-27 19:23 43.17071 7.57962 5050 ft 250 kts 122°
2026-04-27 19:23 43.16175 7.59959 5270 ft 243 kts 124°
2026-04-27 19:23 43.15269 7.61885 5303 ft 246 kts 124°
2026-04-27 19:24 43.14337 7.63823 5447 ft 243 kts 124°
2026-04-27 19:24 43.13416 7.65800 5418 ft 247 kts 124°
2026-04-27 19:24 43.12472 7.67771 5488 ft 247 kts 125°
2026-04-27 19:24 43.11470 7.69685 5503 ft 248 kts 127°
2026-04-27 19:25 43.10434 7.71581 5503 ft 249 kts 128°
2026-04-27 19:25 43.09389 7.73480 5500 ft 250 kts 128°
2026-04-27 19:25 43.08344 7.75374 5502 ft 250 kts 128°
2026-04-27 19:25 43.07296 7.77273 5504 ft 250 kts 128°
2026-04-27 19:26 43.06288 7.79209 5499 ft 249 kts 120°
2026-04-27 19:26 43.05815 7.81480 5503 ft 250 kts 99°
2026-04-27 19:26 43.05634 7.83819 5506 ft 251 kts 96°
2026-04-27 19:26 43.05475 7.86190 5501 ft 250 kts 96°
2026-04-27 19:27 43.05321 7.88561 5502 ft 250 kts 96°
2026-04-27 19:27 43.05170 7.90932 5504 ft 251 kts 96°
2026-04-27 19:27 43.05019 7.93300 5503 ft 246 kts 96°
2026-04-27 19:27 43.04878 7.95603 5504 ft 241 kts 96°
2026-04-27 19:28 43.04741 7.97872 5505 ft 239 kts 96°
2026-04-27 19:28 43.04604 8.00132 5504 ft 238 kts 96°
2026-04-27 19:28 43.04468 8.02389 5505 ft 237 kts 96°
2026-04-27 19:28 43.04332 8.04637 5505 ft 237 kts 96°
2026-04-27 19:29 43.04187 8.06883 5496 ft 237 kts 97°
2026-04-27 19:29 43.03958 8.09091 5517 ft 235 kts 99°
2026-04-27 19:29 43.03789 8.11271 5731 ft 229 kts 96°
2026-04-27 19:29 43.03633 8.13479 5611 ft 237 kts 97°
2026-04-27 19:30 43.03456 8.15726 5565 ft 238 kts 98°
2026-04-27 19:30 43.03290 8.17973 5595 ft 236 kts 97°
2026-04-27 19:30 43.03059 8.20211 5550 ft 238 kts 99°
2026-04-27 19:30 43.02710 8.22409 5573 ft 236 kts 106°
2026-04-27 19:31 43.02261 8.24571 5569 ft 237 kts 106°
2026-04-27 19:31 43.01862 8.26760 5524 ft 238 kts 105°
2026-04-27 19:31 43.01486 8.28957 5549 ft 235 kts 102°
2026-04-27 19:31 43.01199 8.31148 5612 ft 234 kts 99°
2026-04-27 19:32 43.00945 8.33368 5520 ft 238 kts 99°
2026-04-27 19:32 43.00552 8.35537 5431 ft 240 kts 114°
2026-04-27 19:32 42.99995 8.37613 5657 ft 231 kts 103°
2026-04-27 19:32 42.99722 8.39840 5466 ft 240 kts 99°
2026-04-27 19:33 42.99481 8.42070 5524 ft 236 kts 99°
2026-04-27 19:33 42.99350 8.43546 5516 ft 237 kts 97°
2026-04-27 19:33 42.99187 8.46558 5458 ft 238 kts 94°
2026-04-27 19:33 42.99182 8.48813 5466 ft 237 kts 90°
2026-04-27 19:34 42.99178 8.51075 5418 ft 239 kts 91°
2026-04-27 19:34 42.99188 8.53310 5555 ft 233 kts 91°
2026-04-27 19:34 42.99162 8.55549 5484 ft 237 kts 93°
2026-04-27 19:34 42.99154 8.57795 5501 ft 237 kts 91°
2026-04-27 19:35 42.99143 8.60035 5394 ft 240 kts 91°
2026-04-27 19:35 42.99117 8.62308 5410 ft 238 kts 92°
2026-04-27 19:35 42.99084 8.64546 5484 ft 235 kts 92°
2026-04-27 19:35 42.99025 8.66789 5467 ft 236 kts 93°
2026-04-27 19:36 42.98972 8.69028 5513 ft 235 kts 92°
2026-04-27 19:36 42.98921 8.71264 5465 ft 238 kts 92°
2026-04-27 19:36 42.98846 8.73519 5461 ft 238 kts 94°
2026-04-27 19:36 42.98791 8.75756 5613 ft 231 kts 92°
2026-04-27 19:37 42.98754 8.77956 5519 ft 238 kts 92°
2026-04-27 19:37 42.98721 8.80205 5587 ft 236 kts 92°
2026-04-27 19:37 42.98691 8.82449 5521 ft 239 kts 91°
2026-04-27 19:37 42.98702 8.84733 5455 ft 240 kts 89°
2026-04-27 19:38 42.98714 8.86977 5560 ft 235 kts 91°
2026-04-27 19:38 42.98678 8.89233 5436 ft 240 kts 92°
2026-04-27 19:38 42.98652 8.91519 5417 ft 239 kts 91°
2026-04-27 19:38 42.98663 8.93768 5517 ft 235 kts 90°
2026-04-27 19:39 42.98669 8.96025 5444 ft 238 kts 90°
2026-04-27 19:39 42.98668 8.98262 5538 ft 235 kts 94°
2026-04-27 19:39 42.98363 9.00484 5323 ft 243 kts 108°
2026-04-27 19:39 42.97592 9.02506 5333 ft 237 kts 131°
2026-04-27 19:40 42.96395 9.03933 5620 ft 228 kts 145°
2026-04-27 19:40 42.94938 9.04838 5597 ft 232 kts 169°
2026-04-27 19:40 42.93321 9.04762 5360 ft 241 kts 189°
2026-04-27 19:40 42.91711 9.04399 5590 ft 231 kts 191°
2026-04-27 19:41 42.90102 9.03995 5443 ft 239 kts 191°
2026-04-27 19:41 42.88462 9.03550 5378 ft 239 kts 192°
2026-04-27 19:41 42.86860 9.03113 5520 ft 233 kts 191°
2026-04-27 19:41 42.85253 9.02697 5418 ft 238 kts 191°
2026-04-27 19:42 42.83629 9.02271 5496 ft 233 kts 192°
2026-04-27 19:42 42.82052 9.01776 5503 ft 235 kts 195°
2026-04-27 19:42 42.80478 9.01230 5633 ft 231 kts 194°
2026-04-27 19:42 42.78898 9.00766 5472 ft 240 kts 191°
2026-04-27 19:43 42.77297 9.00321 5586 ft 235 kts 193°
2026-04-27 19:43 42.75687 8.99824 5538 ft 237 kts 194°
2026-04-27 19:43 42.74079 8.99324 5518 ft 238 kts 193°
2026-04-27 19:43 42.72463 8.98822 5495 ft 238 kts 194°
2026-04-27 19:44 42.70850 8.98294 5500 ft 237 kts 195°
2026-04-27 19:44 42.69278 8.97641 5514 ft 236 kts 201°
2026-04-27 19:44 42.67909 8.96485 5614 ft 234 kts 218°
2026-04-27 19:44 42.66642 8.95053 5526 ft 238 kts 222°
2026-04-27 19:45 42.65479 8.93470 5547 ft 236 kts 230°
2026-04-27 19:45 42.64569 8.91679 5707 ft 231 kts 242°
2026-04-27 19:45 42.63936 8.89699 5843 ft 230 kts 250°
2026-04-27 19:45 42.63372 8.87652 5855 ft 233 kts 250°
2026-04-27 19:46 42.62788 8.85532 5617 ft 242 kts 250°
2026-04-27 19:46 42.62195 8.83404 5669 ft 237 kts 249°
2026-04-27 19:46 42.61585 8.81353 5740 ft 235 kts 248°
2026-04-27 19:46 42.60929 8.79296 5655 ft 239 kts 246°
2026-04-27 19:47 42.60228 8.77246 5637 ft 238 kts 244°
2026-04-27 19:47 42.59460 8.75264 5669 ft 236 kts 241°
2026-04-27 19:47 42.58611 8.73345 5639 ft 237 kts 240°
2026-04-27 19:47 42.57780 8.71412 5618 ft 238 kts 240°
2026-04-27 19:48 42.56934 8.69486 5623 ft 237 kts 239°
2026-04-27 19:48 42.56063 8.67590 5612 ft 237 kts 237°
2026-04-27 19:48 42.55083 8.65782 5496 ft 240 kts 227°
2026-04-27 19:48 42.53810 8.64413 5568 ft 235 kts 209°
2026-04-27 19:49 42.52265 8.63700 5524 ft 236 kts 191°
2026-04-27 19:49 42.50619 8.63541 5407 ft 238 kts 181°
2026-04-27 19:49 42.48981 8.63575 5500 ft 233 kts 178°
2026-04-27 19:49 42.47361 8.63685 5480 ft 234 kts 176°
2026-04-27 19:50 42.45706 8.63742 5298 ft 239 kts 181°
2026-04-27 19:50 42.44075 8.63459 5361 ft 234 kts 194°
2026-04-27 19:50 42.42506 8.62707 5089 ft 243 kts 205°
2026-04-27 19:50 42.41055 8.61652 5006 ft 232 kts 210°
2026-04-27 19:51 42.39698 8.60552 4786 ft 228 kts 213°
2026-04-27 19:51 42.38361 8.59322 4244 ft 234 kts 216°
2026-04-27 19:51 42.37062 8.58064 4015 ft 226 kts 215°
2026-04-27 19:51 42.35702 8.57117 3913 ft 218 kts 199°
2026-04-27 19:52 42.34232 8.56567 3727 ft 217 kts 192°
2026-04-27 19:52 42.33233 8.56359 3503 ft 221 kts 187°
2026-04-27 19:52 42.31213 8.56247 3461 ft 218 kts 180°
2026-04-27 19:52 42.29645 8.56312 3417 ft 231 kts 178°
2026-04-27 19:53 42.27003 8.56474 3565 ft 220 kts 179°
2026-04-27 19:53 42.25518 8.56564 3151 ft 213 kts 178°
2026-04-27 19:53 42.23646 8.56660 3162 ft 186 kts 179°
2026-04-27 19:54 42.22788 8.56693 3279 ft 180 kts 178°
2026-04-27 19:54 42.21549 8.56748 3285 ft 180 kts 174°
2026-04-27 19:54 42.20348 8.57160 3384 ft 176 kts 166°
2026-04-27 19:54 42.19169 8.57574 3497 ft 174 kts 166°
2026-04-27 19:55 42.17996 8.57975 3615 ft 173 kts 166°
2026-04-27 19:55 42.16821 8.58372 3664 ft 176 kts 167°
2026-04-27 19:55 42.15615 8.58779 3664 ft 180 kts 167°
2026-04-27 19:55 42.14393 8.59189 3667 ft 182 kts 167°
2026-04-27 19:56 42.13184 8.59699 3590 ft 186 kts 160°
2026-04-27 19:56 42.11993 8.60407 3417 ft 191 kts 153°
2026-04-27 19:56 42.10832 8.61320 3199 ft 195 kts 148°
2026-04-27 19:56 42.09730 8.62352 2873 ft 192 kts 144°
2026-04-27 19:57 42.08699 8.63399 2650 ft 179 kts 143°
2026-04-27 19:57 42.07674 8.64411 2439 ft 183 kts 145°
2026-04-27 19:57 42.06650 8.65408 2342 ft 180 kts 147°
2026-04-27 19:57 42.05605 8.66307 2302 ft 176 kts 146°
2026-04-27 19:58 42.04644 8.67262 2362 ft 170 kts 144°
2026-04-27 19:58 42.03716 8.68171 2510 ft 164 kts 141°
2026-04-27 19:58 42.02812 8.69194 2341 ft 176 kts 141°
2026-04-27 19:58 42.01849 8.70240 2174 ft 180 kts 142°
2026-04-27 19:59 42.00883 8.71274 2167 ft 175 kts 141°
2026-04-27 19:59 41.99915 8.72308 2009 ft 178 kts 142°
2026-04-27 19:59 41.99156 8.73486 2213 ft 163 kts 122°
2026-04-27 19:59 41.98708 8.74913 2102 ft 172 kts 111°
2026-04-27 20:00 41.98245 8.76365 2189 ft 156 kts 126°
2026-04-27 20:00 41.97439 8.77232 2144 ft 156 kts 147°
2026-04-27 20:00 41.96486 8.77997 1821 ft 159 kts 152°
2026-04-27 20:00 41.95519 8.78557 1654 ft 140 kts 161°
2026-04-27 20:01 41.94647 8.78911 1483 ft 128 kts 165°
2026-04-27 20:01 41.93806 8.79231 1432 ft 118 kts 163°
2026-04-27 20:01 41.93024 8.79553 1432 ft 116 kts 161°
2026-04-27 20:01 41.92281 8.80018 1544 ft 124 kts 150°
2026-04-27 20:02 41.91493 8.80676 1441 ft 143 kts 142°
2026-04-27 20:02 41.91114 8.81791 1347 ft 128 kts 88°
2026-04-27 20:02 41.91423 8.82785 1272 ft 106 kts 44°
2026-04-27 20:02 41.92131 8.83216 971 ft 123 kts 17°
2026-04-27 20:03 41.92957 8.83356 978 ft 110 kts
2026-04-27 20:03 41.93709 8.83277 899 ft 113 kts 338°
2026-04-27 20:03 41.94185 8.82570 706 ft 98 kts 295°
2026-04-27 20:03 41.94312 8.81685 453 ft 97 kts 256°
2026-04-27 20:04 41.93861 8.81112 286 ft 92 kts 198°
2026-04-27 20:04 41.93263 8.80812 157 ft 91 kts 205°
2026-04-27 20:04 41.92654 8.80419 32 ft 100 kts 204°
2026-04-27 20:04 41.92161 8.80109 20 ft 58 kts 209°
2026-04-27 20:05 41.91869 8.79917 20 ft 44 kts 210°
2026-04-27 20:05 41.91597 8.79745 18 ft 43 kts 203°
2026-04-27 20:05 41.91334 8.79597 18 ft 40 kts 194°
2026-04-27 20:05 41.91264 8.79421 19 ft 17 kts 325°
2026-04-27 20:06 41.91367 8.79355 19 ft 8 kts 333°
2026-04-27 20:06 41.91428 8.79327 19 ft 10 kts
2026-04-27 20:06 41.91525 8.79374 19 ft 19 kts 26°
2026-04-27 20:06 41.91651 8.79450 19 ft 21 kts 27°
2026-04-27 20:07 41.91778 8.79535 20 ft 19 kts 22°
2026-04-27 20:07 41.91903 8.79611 20 ft 21 kts 26°
2026-04-27 20:07 41.92038 8.79695 20 ft 22 kts 28°
2026-04-27 20:07 41.92179 8.79786 20 ft 23 kts 21°
2026-04-27 20:08 41.92278 8.79829 20 ft 9 kts 347°
2026-04-27 20:08 41.92299 8.79737 20 ft 14 kts 281°
2026-04-27 20:08 41.92310 8.79598 20 ft 16 kts 275°
2026-04-27 20:08 41.92272 8.79520 20 ft 11 kts 183°
2026-04-27 20:09 41.92207 8.79468 20 ft 12 kts 231°
2026-04-27 20:09 41.92205 8.79385 20 ft 0 kts 276°